Location: Coupvray
(48.8929°N, 2.7967°E)
Time: 04:33:41
(UTC+00:00)

Cosmos 2082 Rocket - Pass Details

Date: 14 July 2020
Orbit: 833 x 853 km, 71.0° (Epoch: 06 August)

Event Time Altitude Azimuth Distance (km) Brightness Sun altitude
Exits shadow 02:22:39 15° 197° (SSW) 2,140 3.7 -12.2°
Maximum altitude 02:27:25 74° 115° (ESE) 889 2.3 -11.7°
Drops below altitude 10° 02:33:07 10° 31° (NNE) 2,489 6.2 -11.1°
Sets 02:35:35 0° 30° (NNE) 3,426 7.4 -10.9°
